Location: Dornstetten
(48.4720°N, 8.4982°E)
Time: 00:38:34
(UTC+00:00)

Daily predictions for brighter satellites

Satellite Brightness Start Highest point End
(mag) Time Altitude Azimuth Time Altitude Azimuth Time Altitude Azimuth
SL-16 R/B 3.9 00:02:19 16° SE 00:04:45 21° E 00:08:54 10° NE
Lacrosse 5 3.2 00:07:00 23° SE 00:07:37 24° SE 00:11:40 10° ENE
USA 306 2.9 00:07:12 53° S 00:07:38 56° SE 00:11:43 10° ENE
SL-16 R/B 4.0 00:02:24 10° ESE 00:07:51 33° ENE 00:13:20 10° N
Cosmos 1980 3.8 00:06:08 37° S 00:08:20 65° ESE 00:13:56 10° NNE
Cosmos 371 Rocket 3.2 00:06:52 43° S 00:08:27 78° ESE 00:13:20 10° NNE
Cosmos 1461 4.2 00:07:07 10° WNW 00:10:09 26° WSW 00:10:09 26° WSW
USA 307 2.9 00:11:14 50° SSE 00:11:38 53° SE 00:15:44 10° ENE
Cosmos 2333 Rocket 3.5 00:07:16 13° WSW 00:11:41 34° NW 00:16:51 10° NNE
Meteor 2-10 Rocket 3.9 00:08:09 10° N 00:13:50 69° ENE 00:16:51 27° SSE
ATLAS CENTAUR R/B 3.8 00:11:55 10° WNW 00:13:49 13° WSW 00:13:49 13° WSW
ASTEX 1 4.0 00:11:31 10° N 00:16:10 44° WNW 00:18:02 30° SW
Cosmos 1709 Rocket 3.9 00:10:06 10° N 00:16:16 86° E 00:19:32 30° S
Cosmos 304 Rocket 4.0 00:15:45 39° SSE 00:17:21 60° ESE 00:22:07 10° NNE
Cosmos 2084 Rocket 4.3 00:19:40 29° SE 00:19:51 29° ESE 00:23:11 10° ENE
USA 267 3.6 00:17:02 29° S 00:19:53 44° SW 00:26:07 10° WNW
Cosmos 2315 Rocket 4.1 00:18:32 30° S 00:21:52 74° E 00:28:15 10° NNE
NOSS 2-2 (C) 4.5 00:18:10 10° NW 00:23:12 54° SW 00:26:47 27° S
Cosmos 1674 Rocket 4.2 00:23:08 33° WSW 00:24:28 42° WNW 00:28:36 10° N
USA 229 DEB 4.1 00:18:58 10° NW 00:26:07 54° WSW 00:30:40 25° S
USA 229 4.1 00:19:03 10° NW 00:26:13 54° WSW 00:30:48 25° S
S3M 4.2 00:24:09 30° SSW 00:27:22 64° WNW 00:33:42 10° N
Cosmos 2219 Rocket 3.6 00:26:27 13° WSW 00:30:46 31° NW 00:35:45 10° NNE
Cosmos 1455 4.1 00:28:05 10° NNE 00:31:11 24° ENE 00:33:50 12° ESE
Cosmos 2150 Rocket 4.2 00:32:33 31° SW 00:34:56 63° WNW 00:40:04 10° NNE
MOZ.5/SAFIR/RUBIN 5/SL-8 3.7 00:34:54 32° SSE 00:37:08 89° WSW 00:41:56 10° NNW
CZ-2D R/B 3.0 00:32:45 10° NNE 00:37:48 40° E 00:40:53 21° SSE
Cosmos 1455 Rocket 3.1 00:35:58 10° N 00:40:27 84° ENE 00:42:27 33° SSE
USA 308 2.7 00:40:45 38° SW 00:42:18 82° SSE 00:46:30 10° ENE
Cosmos 1300 3.0 00:39:36 10° NNW 00:43:15 47° W 00:43:56 41° SW
Cosmos 1125 Rocket 4.0 00:43:32 26° SW 00:46:13 50° WNW 00:51:17 10° NNE
NOSS 0 Rocket 4.3 00:45:01 23° SW 00:48:54 59° NW 00:55:06 10° NNE
Meteor 2-5 Rocket 3.8 00:50:14 27° S 00:53:31 74° E 00:59:11 10° NNE
SL-14 R/B 4.4 00:53:24 26° WSW 00:54:34 32° WNW 00:58:04 10° N
ERBS 2.0 00:55:13 53° WSW 00:55:49 76° NW 00:58:53 10° NE
CZ-4C R/B 4.0 00:50:29 10° WNW 00:56:36 27° WSW 00:59:24 23° SW
Cosmos 1975 Rocket 3.0 00:56:40 34° SSW 00:58:32 77° W 01:03:02 10° N
Cosmos 2237 Rocket 2.5 00:56:44 24° SW 01:00:05 59° WNW 01:05:45 10° NNE
Cosmos 1025 Rocket 2.9 01:00:08 33° SSW 01:02:01 86° W 01:06:21 10° N
Resurs 1-4 Rocket 2.3 00:58:32 10° NNE 01:03:47 67° ESE 01:07:01 24° S
COSMOS 2428 4.3 00:59:56 10° WSW 01:04:41 27° NW 01:09:28 10° NNE
USA 305 3.1 01:02:26 21° WSW 01:05:07 69° NNW 01:09:18 10° ENE
SME Rocket 3.3 01:03:28 31° SSW 01:05:15 59° W 01:10:26 10° NNW
CZ-4 R/B 3.8 01:05:54 10° NNE 01:10:35 74° ESE 01:13:13 26° S
Cosmos 332 Rocket 4.1 01:08:19 27° SW 01:10:48 56° WNW 01:15:32 10° NNE
YAOGAN 11 4.5 01:09:44 14° SSE 01:13:32 67° ENE 01:18:02 10° N
Cosmos 1943 Rocket 2.1 01:08:24 10° NNW 01:14:05 75° WSW 01:19:23 12° SSE
Lacrosse 5 rocket 1.8 01:14:37 30° S 01:15:56 41° SE 01:19:46 10° ENE
IDEFIX/ARIANE 42P 3.6 01:11:46 10° NNE 01:16:44 40° E 01:21:05 13° SSE
GP-B 4.0 01:13:34 10° NNW 01:17:36 35° W 01:19:29 24° SW
ADEOS II 2.8 01:12:32 10° NNE 01:17:38 48° E 01:21:40 16° S
Cosmos 614 Rocket 4.1 01:13:55 10° NNW 01:19:08 75° ENE 01:24:22 10° SSE
UNK 3.8 01:15:35 16° SSE 01:19:18 81° ENE 01:23:57 10° NNW
Cosmos 1953 4.4 01:17:41 10° NW 01:19:37 13° W 01:20:22 13° W
Cosmos 2297 3.7 01:14:07 10° NNW 01:19:53 84° WSW 01:25:38 10° SSE
Thor Agena Rocket 4.0 01:15:59 10° N 01:21:06 52° WNW 01:24:18 22° SW
USA 215 4.3 01:19:55 10° ENE 01:26:04 45° N 01:32:13 10° W
Cosmos 1544 Rocket 3.6 01:22:34 10° NNW 01:26:57 62° W 01:29:32 23° S
Cosmos 1703 4.4 01:24:41 14° SSE 01:27:41 38° E 01:31:21 10° NNE
Cosmos 2278 Rocket 3.7 01:25:37 10° WNW 01:29:15 18° W 01:30:40 16° WSW
Helios 1A 3.5 01:25:37 10° SSE 01:29:46 60° ENE 01:33:57 10° N
Cosmos 2251 Rocket 4.1 01:24:53 10° NNW 01:30:06 59° ENE 01:35:19 10° SE
Cosmos 2154 Rocket 4.1 01:24:49 10° N 01:31:13 85° E 01:37:32 10° S
EO 1 Del DPAF 4.0 01:30:32 10° NNE 01:33:53 42° E 01:36:19 17° SSE
MOS 1 Rocket 3.0 01:33:16 16° S 01:36:38 80° WSW 01:41:00 10° NNW
NPP 3.7 01:32:14 10° NNE 01:37:40 81° WNW 01:41:35 19° SSW
Cosmos 2369 Rocket 2.3 01:37:36 10° NNW 01:43:14 78° ENE 01:48:49 10° SSE
Cosmos 1656 Rocket 4.0 01:41:12 10° NNW 01:46:38 67° ENE 01:52:01 10° SE
USA 306 3.7 01:43:14 10° W 01:47:17 48° NNW 01:51:22 10° ENE
SL-16 R/B 2.3 01:44:11 19° SW 01:48:17 70° WNW 01:53:59 10° NNE
Meteor 1-28 Rocket 3.1 01:46:34 14° S 01:49:41 76° WSW 01:53:25 10° NNW
Lacrosse 5 1.9 01:46:10 17° WSW 01:50:07 83° NW 01:55:16 10° NE
SL-16 R/B 2.8 01:45:54 14° S 01:51:12 52° W 01:57:18 10° NNW
USA 307 3.6 01:47:15 10° W 01:51:20 50° NNW 01:55:25 10° ENE
Cosmos 2074 Rocket 4.3 01:47:59 10° NNW 01:54:00 49° W 01:59:10 14° SSW
Cosmos 2084 Rocket 4.2 01:56:07 13° WSW 01:59:09 37° NW 02:02:43 10° NNE
AQUA 4.0 01:56:30 10° N 02:01:12 61° WNW 02:04:57 16° SSW
Cosmos 1455 3.3 02:03:30 10° NNW 02:06:37 26° W 02:08:35 17° SW
Cosmos 1603 4.4 02:06:35 10° S 02:11:58 49° ESE 02:17:26 10° NE
COSMOS 2455 2.9 02:08:44 14° SW 02:13:57 82° NW 02:20:02 10° NNE
Cosmos 407 Rocket 3.7 02:08:44 10° NNW 02:14:06 78° ENE 02:19:22 10° SSE
Cosmos 2228 3.1 02:09:48 10° NNW 02:14:07 61° W 02:18:23 10° S
Cosmos 1271 Rocket 3.3 02:11:15 10° NNW 02:14:49 38° W 02:18:01 12° SSW
CZ-2D R/B 3.1 02:12:58 10° N 02:17:46 34° WNW 02:22:12 11° SW
USA 308 4.0 02:18:12 10° W 02:22:12 42° N 02:26:12 10° ENE
Cosmos 1140 Rocket 3.5 02:17:01 10° NNW 02:22:19 87° WSW 02:27:34 10° SSE
MSX 3.9 02:19:17 10° NNE 02:25:04 78° WNW 02:30:50 10° SSW
Cosmos 962 Rocket 4.5 02:21:11 10° NNW 02:27:16 68° W 02:33:20 10° S
Cosmos 2058 Rocket 3.7 02:24:43 10° N 02:29:04 59° ENE 02:33:22 10° SSE
Cosmos 292 Rocket 4.2 02:25:27 12° SW 02:29:45 50° WNW 02:34:27 10° NNE
ERBS 4.4 02:29:09 10° WNW 02:31:33 21° NNW 02:33:59 10° NE
Cosmos 2181 Rocket 4.2 02:28:05 10° S 02:34:17 75° E 02:40:26 10° NNE
NOSS 3-3 (A) 4.0 02:30:11 10° SSW 02:35:50 75° SE 02:42:24 10° NE
NOSS 3-3 (C) 4.0 02:30:17 10° SSW 02:35:56 74° SE 02:42:29 10° NE
Genesis I 3.3 02:36:28 10° NW 02:40:30 63° SW 02:44:25 10° SSE
Cosmos 1943 3.3 02:36:35 10° SSW 02:42:17 89° ESE 02:48:01 10° NNE
Resurs 1-4 Rocket 3.7 02:39:12 10° N 02:43:08 22° WNW 02:47:04 10° WSW
Meteor 2-1 Rocket 4.4 02:38:17 10° NNW 02:43:55 56° W 02:49:24 10° S
USA 305 4.2 02:41:13 10° WNW 02:45:09 38° N 02:49:04 10° ENE
DEBRIS 3.6 02:35:02 10° WNW 02:45:25 76° SSW 02:48:36 10° ESE
Cosmos 2237 Rocket 4.4 02:42:02 10° WNW 02:45:25 16° NW 02:48:49 10° N
Helios 1B rocket 2.5 02:42:39 10° NNE 02:46:45 79° ESE 02:50:48 10° S
Cosmos 1328 4.0 02:45:15 10° SSW 02:49:09 58° WNW 02:53:07 10° N
Cosmos 1606 Rocket 4.1 02:45:51 10° NNW 02:49:59 39° W 02:54:03 10° SSW
ARIANE 5 R/B 3.5 02:47:00 10° NNE 02:51:53 46° E 02:56:41 10° S
Cosmos 1624 Rocket 4.4 02:48:03 10° S 02:53:19 67° ESE 02:58:35 10° NNE
Lacrosse 5 rocket 2.2 02:51:13 10° W 02:55:00 43° NNW 02:59:01 10° NE
CBERS-1 4.1 02:50:10 10° NNE 02:55:18 78° WNW 03:00:24 10° SSW
IDEFIX/ARIANE 42P 3.6 02:51:31 10° N 02:56:13 34° WNW 03:00:54 10° SW
